M I D A S
Marine Information and Data Acquisition System
Tripno 134 of the Zeeleeuw from 2001-06-05 10:00:00 to 2001-06-05 18:00:00
Back to CruiseResearch ActivitiesStationsMapUnderway DataData graphs

EquipmentUnitsComment
TimeDGPSUTC
LatitudeDGPSDM.mWGS84
LongitudeDGPSDM.mWGS84
HeadingGyrodeg 
SOGDGPSknotsSpeed over ground
COGDGPSdegCourse over ground
DepthEcho soundermeters200 kHz
Missing or incorrect values are displayed as -999
Navigation data collected by the RV Zeeleeuw from 2001-06-05 10:00:00 to 2001-06-05 18:00:00
                                                                                    Next 1000 lines
Time Latitude Longitude Heading SOG COG Depth
2001-06-05 10:00:07 51°8.619 2°34.304 52.2 10.7 51.1 15.3
2001-06-05 10:00:13 51°8.63 2°34.326 52.5 10.6 51.2 15.3
2001-06-05 10:00:18 51°8.638 2°34.343 52.8 10.2 51.6 15.3
2001-06-05 10:00:23 51°8.646 2°34.36 53.2 9.8 52.1 15.3
2001-06-05 10:00:28 51°8.654 2°34.376 53.5 9.3 52.6 15.2
2001-06-05 10:00:33 51°8.661 2°34.391 54.2 8.9 52.6 15.3
2001-06-05 10:00:38 51°8.668 2°34.406 54.7 8.4 53.5 15.3
2001-06-05 10:00:43 51°8.674 2°34.42 55.2 8.1 53.9 15.3
2001-06-05 10:00:48 51°8.681 2°34.434 55.8 7.7 54.5 15.4
2001-06-05 10:00:53 51°8.686 2°34.447 56.3 7.5 55.1 15.3
2001-06-05 10:00:57 51°8.691 2°34.457 57.3 7.2 56 15.4
2001-06-05 10:01:03 51°8.697 2°34.473 58.3 7 56.9 15.4
2001-06-05 10:01:08 51°8.702 2°34.486 59.8 6.7 58.1 15.4
2001-06-05 10:01:13 51°8.706 2°34.498 61.2 6.5 59.1 15.4
2001-06-05 10:01:18 51°8.71 2°34.51 62.7 6.3 60.4 15.4
2001-06-05 10:01:23 51°8.714 2°34.521 64.2 6.1 61.1 15.3
2001-06-05 10:01:28 51°8.718 2°34.533 65.7 5.9 62.7 15.4
2001-06-05 10:01:33 51°8.721 2°34.544 67.3 5.7 63.6 15.4
2001-06-05 10:01:38 51°8.725 2°34.555 69 5.5 65 15.4
2001-06-05 10:01:43 51°8.727 2°34.566 70.7 5.4 66.2 15.3
2001-06-05 10:01:48 51°8.73 2°34.576 72 5.2 67.2 15.3
2001-06-05 10:01:53 51°8.733 2°34.586 72.5 5.1 67.8 15.3
2001-06-05 10:01:58 51°8.736 2°34.596 72.8 4.9 67.8 15.3
2001-06-05 10:02:03 51°8.738 2°34.606 72.7 4.8 68.1 15.3
2001-06-05 10:02:08 51°8.74 2°34.615 72.5 4.7 68.1 15.3
2001-06-05 10:02:13 51°8.743 2°34.624 72.2 4.6 67.4 15.2
2001-06-05 10:02:18 51°8.745 2°34.633 71.2 4.4 67.1 15.2
2001-06-05 10:02:23 51°8.747 2°34.642 70.3 4.3 67.3 15.1
2001-06-05 10:02:28 51°8.75 2°34.65 69.2 4.2 66.1 15.1
2001-06-05 10:02:33 51°8.752 2°34.658 67.8 4.1 65.1 15.1
2001-06-05 10:02:38 51°8.755 2°34.666 66.5 4 64.1 15.1
2001-06-05 10:02:43 51°8.757 2°34.674 64.8 3.9 63.4 15.1
2001-06-05 10:02:48 51°8.76 2°34.681 63.3 3.8 62.4 15.1
2001-06-05 10:02:53 51°8.762 2°34.689 62 3.8 62 15
2001-06-05 10:02:58 51°8.765 2°34.696 60.3 3.7 60.6 15
2001-06-05 10:03:03 51°8.767 2°34.702 59.3 3.6 60.5 14.9
2001-06-05 10:03:08 51°8.77 2°34.709 58.5 3.6 60 14.9
2001-06-05 10:03:13 51°8.772 2°34.716 57.5 3.5 59.7 14.8
2001-06-05 10:03:18 51°8.775 2°34.722 56.8 3.5 59.1 14.9
2001-06-05 10:03:23 51°8.777 2°34.729 56.2 3.4 58.4 14.8
2001-06-05 10:03:28 51°8.78 2°34.735 55.5 3.4 57.5 14.8
2001-06-05 10:03:33 51°8.782 2°34.741 54.8 3.3 58 14.8
2001-06-05 10:03:38 51°8.785 2°34.747 54.5 3.3 57.7 14.8
2001-06-05 10:03:43 51°8.787 2°34.753 53.8 3.2 56.6 14.8
2001-06-05 10:03:47 51°8.789 2°34.758 53.5 3.2 56.6 14.8
2001-06-05 10:03:53 51°8.792 2°34.765 53.2 3.2 56.5 14.9
2001-06-05 10:03:58 51°8.794 2°34.77 52.7 3.1 56.4 15
2001-06-05 10:04:03 51°8.797 2°34.776 52.2 3.1 56 15.1
2001-06-05 10:04:08 51°8.799 2°34.782 51.8 3.1 56.4 15
2001-06-05 10:04:13 51°8.802 2°34.787 51.3 3 55.4 15
2001-06-05 10:04:18 51°8.804 2°34.792 51 3 55.3 15
2001-06-05 10:04:23 51°8.806 2°34.798 51 3 55.1 15
2001-06-05 10:04:28 51°8.809 2°34.803 50.5 2.9 55 15
2001-06-05 10:04:33 51°8.811 2°34.808 50.3 2.9 54.9 15.1
2001-06-05 10:04:38 51°8.813 2°34.813 50 2.9 55 15
2001-06-05 10:04:43 51°8.815 2°34.819 50 2.9 55 15
2001-06-05 10:04:48 51°8.818 2°34.824 49.7 2.8 54.9 15
2001-06-05 10:04:53 51°8.82 2°34.829 49.3 2.8 55.3 15.1
2001-06-05 10:04:58 51°8.822 2°34.834 49.2 2.8 55 15.1
2001-06-05 10:05:03 51°8.825 2°34.839 48.8 2.8 54.7 15.1
2001-06-05 10:05:07 51°8.826 2°34.843 48.5 2.8 55.3 15.1
2001-06-05 10:05:13 51°8.829 2°34.849 48.3 2.7 54.9 15
2001-06-05 10:05:18 51°8.831 2°34.854 48.3 2.7 55.2 15
2001-06-05 10:05:23 51°8.833 2°34.859 48.2 2.7 55 15
2001-06-05 10:05:28 51°8.836 2°34.864 48.2 2.7 55.6 15
2001-06-05 10:05:33 51°8.838 2°34.868 48 2.6 55.1 14.9
2001-06-05 10:05:37 51°8.839 2°34.872 47.8 2.6 55.8 14.8
2001-06-05 10:05:43 51°8.841 2°34.878 47.7 2.6 55.5 14.8
2001-06-05 10:05:48 51°8.843 2°34.883 47.7 2.6 55.1 14.9
2001-06-05 10:05:53 51°8.845 2°34.888 47.7 2.6 55.3 14.8
2001-06-05 10:05:58 51°8.848 2°34.892 47.5 2.6 54.8 14.8
2001-06-05 10:06:03 51°8.849 2°34.897 47.5 2.5 55.2 14.9
2001-06-05 10:06:08 51°8.851 2°34.902 47.3 2.5 55.7 14.9
2001-06-05 10:06:13 51°8.854 2°34.906 47.3 2.5 55 14.9
2001-06-05 10:06:18 51°8.855 2°34.911 47.2 2.5 55.5 14.9
2001-06-05 10:06:23 51°8.857 2°34.915 47.2 2.5 56.4 14.8
2001-06-05 10:06:28 51°8.859 2°34.92 47 2.5 55.5 14.9
2001-06-05 10:06:33 51°8.861 2°34.925 46.8 2.5 55.9 15
2001-06-05 10:06:38 51°8.863 2°34.929 46.7 2.5 55.3 14.9
2001-06-05 10:06:43 51°8.865 2°34.933 46.5 2.5 55.9 15
2001-06-05 10:06:47 51°8.866 2°34.937 46.3 2.4 55.6 14.9
2001-06-05 10:06:53 51°8.868 2°34.942 46.2 2.4 56.4 15.1
2001-06-05 10:06:58 51°8.87 2°34.947 46 2.4 56.4 15.1
2001-06-05 10:07:03 51°8.872 2°34.951 45.8 2.4 55.2 15.1
2001-06-05 10:07:08 51°8.874 2°34.955 45.5 2.4 55.3 15
2001-06-05 10:07:13 51°8.876 2°34.96 45.2 2.4 55.9 15
2001-06-05 10:07:18 51°8.877 2°34.964 45 2.4 55.4 15
2001-06-05 10:07:23 51°8.879 2°34.968 44.7 2.4 54.6 15
2001-06-05 10:07:28 51°8.881 2°34.972 44.5 2.4 55.2 14.9
2001-06-05 10:07:33 51°8.883 2°34.977 44.2 2.4 55.4 15
2001-06-05 10:07:37 51°8.884 2°34.98 44 2.4 56.1 14.9
2001-06-05 10:07:43 51°8.887 2°34.985 44 2.3 54.9 15
2001-06-05 10:07:48 51°8.889 2°34.989 43.8 2.3 55.8 15
2001-06-05 10:07:53 51°8.891 2°34.994 43.8 2.3 55.3 15
2001-06-05 10:07:58 51°8.893 2°34.998 43.3 2.3 55.1 15
2001-06-05 10:08:03 51°8.895 2°35.002 43 2.3 55.7 15
2001-06-05 10:08:07 51°8.896 2°35.006 42 2.3 55 15
2001-06-05 10:08:13 51°8.899 2°35.011 40.7 2.4 53.9 15
2001-06-05 10:08:17 51°8.9 2°35.014 39.2 2.5 51.4 15
2001-06-05 10:08:23 51°8.903 2°35.019 36.8 2.5 50.9 15
2001-06-05 10:08:28 51°8.906 2°35.024 34.3 2.6 48.5 15
2001-06-05 10:08:33 51°8.908 2°35.028 31.3 2.7 45.7 15
2001-06-05 10:08:38 51°8.911 2°35.033 28 2.8 43.4 15.1
2001-06-05 10:08:43 51°8.915 2°35.037 24.2 2.9 40.7 15
2001-06-05 10:08:48 51°8.918 2°35.042 20.2 2.9 37.7 14.9
2001-06-05 10:08:53 51°8.922 2°35.045 16.2 3 35.2 15
2001-06-05 10:08:58 51°8.925 2°35.048 12 3 31.4 15.1
2001-06-05 10:09:03 51°8.929 2°35.051 7.5 3 28.8 15
2001-06-05 10:09:08 51°8.933 2°35.054 3.2 3 24.3 15.1
2001-06-05 10:09:13 51°8.937 2°35.056 358.3 3 21.9 15
2001-06-05 10:09:18 51°8.941 2°35.058 353.8 3 17.4 15
2001-06-05 10:09:23 51°8.945 2°35.059 349.2 3 14.7 15.1
2001-06-05 10:09:28 51°8.949 2°35.06 344.5 2.9 10.3 15
2001-06-05 10:09:33 51°8.953 2°35.06 340 2.9 7.4 15
2001-06-05 10:09:38 51°8.956 2°35.06 335.5 2.8 2.7 15.1
2001-06-05 10:09:43 51°8.96 2°35.06 330.5 2.8 359.6 15.1
2001-06-05 10:09:48 51°8.964 2°35.059 326 2.7 354.8 15
2001-06-05 10:09:53 51°8.968 2°35.058 321 2.7 351.5 15.4
2001-06-05 10:09:58 51°8.971 2°35.057 316.7 2.6 346.4 15.1
2001-06-05 10:10:03 51°8.974 2°35.055 311.7 2.5 342.6 14.8
2001-06-05 10:10:08 51°8.977 2°35.053 306.8 2.4 336.9 14.8
2001-06-05 10:10:13 51°8.98 2°35.05 301.7 2.3 333.3 14.8
2001-06-05 10:10:18 51°8.982 2°35.047 297 2.2 326.8 14.8
2001-06-05 10:10:23 51°8.984 2°35.045 292 2.1 322.2 15
2001-06-05 10:10:28 51°8.986 2°35.041 287 2 315.6 14.9
2001-06-05 10:10:33 51°8.988 2°35.038 282 1.9 311 15
2001-06-05 10:10:38 51°8.989 2°35.035 276.8 1.8 303 15.1
2001-06-05 10:10:43 51°8.99 2°35.031 272.3 1.7 297.8 15.2
2001-06-05 10:10:47 51°8.99 2°35.029 267.2 1.6 289.2 15.1
2001-06-05 10:10:53 51°8.991 2°35.024 262.2 1.6 281.8 15.2
2001-06-05 10:10:58 51°8.991 2°35.021 257 1.5 270 15.2
2001-06-05 10:11:03 51°8.99 2°35.018 252.5 1.4 262.3 15
2001-06-05 10:11:08 51°8.99 2°35.015 247.8 1.5 255.1 14.8
2001-06-05 10:11:13 51°8.989 2°35.012 244 1.5 248.5 15.1
2001-06-05 10:11:18 51°8.988 2°35.009 240.2 1.6 239.1 15.3
2001-06-05 10:11:23 51°8.987 2°35.006 237.3 1.6 237.5 15
2001-06-05 10:11:28 51°8.985 2°35.003 235 1.7 232.2 14.8
2001-06-05 10:11:33 51°8.983 2°35 233.7 1.7 229.8 15.2
2001-06-05 10:11:38 51°8.982 2°34.997 232.3 1.9 226.1 15.2
2001-06-05 10:11:43 51°8.98 2°34.994 231.5 1.9 225.9 14.8
2001-06-05 10:11:48 51°8.978 2°34.991 231 2 225 15.3
2001-06-05 10:11:53 51°8.975 2°34.987 230.3 2.1 223.9 15.2
2001-06-05 10:11:58 51°8.973 2°34.984 230.3 2.2 224.6 14.8
2001-06-05 10:12:03 51°8.971 2°34.981 230.2 2.2 222.8 15.2
2001-06-05 10:12:07 51°8.969 2°34.978 230.8 2.3 224.7 14.8
2001-06-05 10:12:13 51°8.966 2°34.973 232 2.4 225 15.1
2001-06-05 10:12:18 51°8.964 2°34.969 233.8 2.3 228.4 15
2001-06-05 10:12:23 51°8.963 2°34.965 237.7 2.3 232.6 15.2
2001-06-05 10:12:28 51°8.961 2°34.961 242.3 2.2 240.3 14.9
2001-06-05 10:12:33 51°8.96 2°34.956 246.8 2.2 246.4 15.2
2001-06-05 10:12:38 51°8.959 2°34.951 251.3 2.2 253 14.9
2001-06-05 10:12:43 51°8.958 2°34.946 253.8 2.3 255.8 15.3
2001-06-05 10:12:48 51°8.958 2°34.941 254.8 2.3 258.1 14.9
2001-06-05 10:12:53 51°8.957 2°34.937 255 2.3 259.5 15.3
2001-06-05 10:12:58 51°8.957 2°34.932 255.5 2.1 261.6 15.2
2001-06-05 10:13:03 51°8.956 2°34.928 255.3 2.1 260.9 14.8
2001-06-05 10:13:08 51°8.956 2°34.923 255.5 2 263.9 15.2
2001-06-05 10:13:13 51°8.956 2°34.919 255.7 1.9 263.3 15.5
2001-06-05 10:13:18 51°8.955 2°34.915 256 1.8 264.5 15.3
2001-06-05 10:13:23 51°8.955 2°34.912 255.7 1.7 263.7 14.9
2001-06-05 10:13:27 51°8.955 2°34.909 255.8 1.6 263.2 15.2
2001-06-05 10:13:33 51°8.955 2°34.905 255.8 1.6 263.4 15.4
2001-06-05 10:13:38 51°8.955 2°34.901 255.7 1.5 264.1 15.4
2001-06-05 10:13:43 51°8.954 2°34.898 255.3 1.5 264 15
2001-06-05 10:13:48 51°8.954 2°34.895 255.2 1.4 264.8 15
2001-06-05 10:13:53 51°8.954 2°34.892 255.2 1.4 266.8 15.4
2001-06-05 10:13:58 51°8.954 2°34.89 254.8 1.3 264.6 15.6
2001-06-05 10:14:03 51°8.954 2°34.887 254.7 1.3 267.5 15.7
2001-06-05 10:14:08 51°8.954 2°34.884 254.3 1.2 266.7 15
2001-06-05 10:14:13 51°8.954 2°34.882 254 1.1 266.2 15
2001-06-05 10:14:18 51°8.954 2°34.879 253.5 1.1 264.8 15.3
2001-06-05 10:14:23 51°8.954 2°34.877 253.3 1.1 266.1 15.4
2001-06-05 10:14:28 51°8.953 2°34.875 253 1 265.8 15.5
2001-06-05 10:14:33 51°8.953 2°34.873 252.3 1 263.9 15.6
2001-06-05 10:14:38 51°8.953 2°34.871 251.8 0.9 263.3 15.3
2001-06-05 10:14:43 51°8.953 2°34.869 251.3 0.9 266.4 14.9
2001-06-05 10:14:47 51°8.953 2°34.867 250.8 0.8 267.6 14.9
2001-06-05 10:14:53 51°8.953 2°34.866 250.2 0.8 264.8 15.1
2001-06-05 10:14:58 51°8.953 2°34.864 249.7 0.7 263 15.2
2001-06-05 10:15:03 51°8.953 2°34.862 249.2 0.7 262 15.4
2001-06-05 10:15:08 51°8.952 2°34.861 248.7 0.7 260.3 15.5
2001-06-05 10:15:13 51°8.952 2°34.86 248 0.6 257.8 15.6
2001-06-05 10:15:17 51°8.952 2°34.859 247.2 0.6 255.3 15.6
2001-06-05 10:15:23 51°8.952 2°34.857 246.5 0.6 258.3 15.3
2001-06-05 10:15:28 51°8.952 2°34.856 245.8 0.5 254.6 15.1
2001-06-05 10:15:33 51°8.952 2°34.855 245 0.5 253.8 15
2001-06-05 10:15:38 51°8.952 2°34.854 244.2 0.4 248.6 15
2001-06-05 10:15:43 51°8.951 2°34.853 243.3 0.4 246.9 15.1
2001-06-05 10:15:48 51°8.951 2°34.853 242.5 0.4 237.9 15.2
2001-06-05 10:15:53 51°8.951 2°34.852 241.7 0.4 234.6 15.3
2001-06-05 10:15:58 51°8.95 2°34.851 240.7 0.3 231.5 15.4
2001-06-05 10:16:03 51°8.95 2°34.851 239.7 0.3 226.9 15.5
2001-06-05 10:16:08 51°8.95 2°34.85 238.8 0.3 224.9 15.5
2001-06-05 10:16:13 51°8.949 2°34.85 238.2 0.3 215.3 15.5
2001-06-05 10:16:18 51°8.949 2°34.85 237.3 0.3 216 15.5
2001-06-05 10:16:23 51°8.949 2°34.85 236.5 0.3 201.8 15.4
2001-06-05 10:16:28 51°8.948 2°34.849 235.7 0.3 193.5 15.4
2001-06-05 10:16:33 51°8.948 2°34.849 235 0.3 188.7 15.3
2001-06-05 10:16:38 51°8.948 2°34.849 234.3 0.3 182.4 15.3
2001-06-05 10:16:43 51°8.948 2°34.85 233.5 0.3 173.4 15.2
2001-06-05 10:16:48 51°8.947 2°34.85 232.8 0.3 163 15.2
2001-06-05 10:16:53 51°8.947 2°34.85 231.8 0.3 161.9 15.2
2001-06-05 10:16:58 51°8.947 2°34.85 231 0.3 151.4 15.2
2001-06-05 10:17:03 51°8.946 2°34.851 230.2 0.3 148.3 15.2
2001-06-05 10:17:08 51°8.946 2°34.851 229.5 0.4 142.7 15.3
2001-06-05 10:17:13 51°8.946 2°34.852 228.7 0.3 138.7 15.4
2001-06-05 10:17:18 51°8.945 2°34.852 227.8 0.4 134.4 15.5
2001-06-05 10:17:23 51°8.945 2°34.853 227 0.4 132.3 15.6
2001-06-05 10:17:28 51°8.944 2°34.854 226.3 0.4 127.4 15.6
2001-06-05 10:17:33 51°8.944 2°34.855 225.8 0.4 124.7 15.7
2001-06-05 10:17:38 51°8.944 2°34.855 225 0.5 124.9 15.7
2001-06-05 10:17:43 51°8.943 2°34.856 224.8 0.4 123 15.7
2001-06-05 10:17:47 51°8.943 2°34.857 224.2 0.4 122.3 15.6
2001-06-05 10:17:53 51°8.943 2°34.858 223.8 0.5 119.4 15.5
2001-06-05 10:17:58 51°8.942 2°34.859 223.3 0.5 116.6 15.5
2001-06-05 10:18:03 51°8.942 2°34.86 223 0.5 114.1 15.4
2001-06-05 10:18:08 51°8.942 2°34.861 222.7 0.5 116.6 15.4
2001-06-05 10:18:13 51°8.941 2°34.862 222 0.6 117.9 15.5
2001-06-05 10:18:18 51°8.941 2°34.863 221.7 0.5 115.3 15.5
2001-06-05 10:18:23 51°8.941 2°34.864 221.3 0.6 114 15.6
2001-06-05 10:18:28 51°8.941 2°34.866 220.8 0.6 110.1 15.6
2001-06-05 10:18:33 51°8.94 2°34.867 220.3 0.6 109.9 15.5
2001-06-05 10:18:37 51°8.94 2°34.868 220.2 0.6 109.1 15.5
2001-06-05 10:18:43 51°8.94 2°34.869 220 0.6 111.2 15.4
2001-06-05 10:18:48 51°8.939 2°34.871 219.8 0.6 109.6 15.3
2001-06-05 10:18:53 51°8.939 2°34.872 219.3 0.6 106.1 15.1
2001-06-05 10:18:58 51°8.939 2°34.874 219.3 0.6 105.1 15.1
2001-06-05 10:19:03 51°8.939 2°34.875 219 0.7 104.3 15.1
2001-06-05 10:19:07 51°8.939 2°34.876 219 0.7 102.1 15.1
2001-06-05 10:19:13 51°8.938 2°34.878 218.8 0.7 101.2 15.1
2001-06-05 10:19:18 51°8.938 2°34.88 218.7 0.7 101.2 15.1
2001-06-05 10:19:23 51°8.938 2°34.881 218.5 0.7 101.1 15
2001-06-05 10:19:28 51°8.938 2°34.882 218.5 0.7 101.8 15
2001-06-05 10:19:33 51°8.938 2°34.884 218.3 0.7 101.6 15
2001-06-05 10:19:37 51°8.938 2°34.885 218.5 0.7 99.9 15
2001-06-05 10:19:43 51°8.938 2°34.887 218.3 0.8 100 15
2001-06-05 10:19:48 51°8.937 2°34.889 218 0.8 98.4 15
2001-06-05 10:19:53 51°8.937 2°34.891 217.8 0.8 98.8 15
2001-06-05 10:19:58 51°8.937 2°34.892 217.8 0.8 95.8 15.3
2001-06-05 10:20:03 51°8.937 2°34.894 217.7 0.8 94.9 15.5
2001-06-05 10:20:08 51°8.937 2°34.896 217.3 0.8 93.6 15.5
2001-06-05 10:20:13 51°8.937 2°34.897 217.5 0.8 94.7 15.4
2001-06-05 10:20:18 51°8.937 2°34.899 217.3 0.8 97.5 15.4
2001-06-05 10:20:23 51°8.937 2°34.901 217.2 0.8 95.3 15.3
2001-06-05 10:20:28 51°8.937 2°34.903 216.8 0.9 92.8 15.3
2001-06-05 10:20:33 51°8.937 2°34.905 216.8 0.8 91.9 15.2
2001-06-05 10:20:38 51°8.936 2°34.907 216.8 0.9 93.4 15
2001-06-05 10:20:43 51°8.936 2°34.908 217 0.8 93.3 14.9
2001-06-05 10:20:48 51°8.936 2°34.91 217 0.9 95.2 15.1
2001-06-05 10:20:53 51°8.936 2°34.912 216.8 0.9 94.6 15.4
2001-06-05 10:20:58 51°8.936 2°34.914 217 0.9 92.8 15.5
2001-06-05 10:21:03 51°8.936 2°34.916 217.3 0.9 92.7 15.6
2001-06-05 10:21:08 51°8.936 2°34.918 217.3 0.9 90.6 15.5
2001-06-05 10:21:13 51°8.936 2°34.92 217.5 0.9 89.2 15.3
2001-06-05 10:21:18 51°8.936 2°34.922 217.7 0.9 88.7 15.2
2001-06-05 10:21:23 51°8.936 2°34.924 218.2 0.9 88.6 15.5
2001-06-05 10:21:28 51°8.936 2°34.926 218.3 0.9 90.3 15.6
2001-06-05 10:21:33 51°8.936 2°34.928 218.5 0.9 89.2 15.4
2001-06-05 10:21:38 51°8.936 2°34.93 218.8 0.9 88.2 15.1
2001-06-05 10:21:43 51°8.936 2°34.932 219 0.9 87.2 15.1
2001-06-05 10:21:48 51°8.936 2°34.934 219.3 0.9 87.8 15.5
2001-06-05 10:21:53 51°8.936 2°34.936 219.5 0.9 89.4 15.6
2001-06-05 10:21:58 51°8.936 2°34.938 219.8 0.9 87.6 15.4
2001-06-05 10:22:03 51°8.936 2°34.94 220.3 0.9 85.5 15.2
2001-06-05 10:22:07 51°8.937 2°34.942 220.5 0.9 84 15.1
2001-06-05 10:22:13 51°8.937 2°34.944 221 0.9 84 15.2
2001-06-05 10:22:18 51°8.937 2°34.947 221.3 0.9 84.6 15.4
2001-06-05 10:22:23 51°8.937 2°34.949 221.7 0.9 82.7 15.5
2001-06-05 10:22:28 51°8.937 2°34.951 221.8 1 82.1 15.5
2001-06-05 10:22:33 51°8.937 2°34.953 222.3 1 83.1 15.4
2001-06-05 10:22:38 51°8.937 2°34.955 222.5 1 85.3 15.2
2001-06-05 10:22:43 51°8.937 2°34.957 222.8 1 84.6 15
2001-06-05 10:22:48 51°8.938 2°34.959 223 1 82.2 15.2
2001-06-05 10:22:53 51°8.938 2°34.961 223 1 82.5 15.5
2001-06-05 10:22:58 51°8.938 2°34.963 223.3 1 82.6 15.5
2001-06-05 10:23:03 51°8.938 2°34.966 223.3 1 83.8 15.3
2001-06-05 10:23:08 51°8.938 2°34.968 223.5 1 82.3 15.3
2001-06-05 10:23:13 51°8.939 2°34.97 223.8 1 82.1 15.4
2001-06-05 10:23:18 51°8.939 2°34.972 224.2 1 83.1 15.1
2001-06-05 10:23:23 51°8.939 2°34.975 224.3 1 81.5 15.1
2001-06-05 10:23:27 51°8.939 2°34.977 224.3 1 83.9 15.4
2001-06-05 10:23:33 51°8.939 2°34.979 224.8 1 81.2 15.5
2001-06-05 10:23:38 51°8.94 2°34.981 225.2 1 80.3 15.4
2001-06-05 10:23:43 51°8.94 2°34.984 225.3 1 81.8 15.3
2001-06-05 10:23:48 51°8.94 2°34.986 225.8 1 80 15.1
2001-06-05 10:23:53 51°8.94 2°34.988 226 1 81.4 15.1
2001-06-05 10:23:58 51°8.941 2°34.99 226.3 1 79.6 15.2
2001-06-05 10:24:03 51°8.941 2°34.993 226.7 1 79.7 15.4
2001-06-05 10:24:08 51°8.941 2°34.995 227 1 80.1 15.3
2001-06-05 10:24:13 51°8.942 2°34.997 227.5 1 79.1 15.3
2001-06-05 10:24:18 51°8.942 2°34.999 227.7 1.1 78.6 15.2
2001-06-05 10:24:23 51°8.942 2°35.002 227.8 1.1 77.1 15.4
2001-06-05 10:24:28 51°8.943 2°35.004 228.3 1.1 76.4 15.3
2001-06-05 10:24:33 51°8.943 2°35.006 228.7 1.1 77.3 15.1
2001-06-05 10:24:38 51°8.943 2°35.009 229.2 1.1 77.1 15.5
2001-06-05 10:24:43 51°8.944 2°35.011 229.5 1.1 77.1 15.3
2001-06-05 10:24:47 51°8.944 2°35.013 229.7 1.1 78.4 15.3
2001-06-05 10:24:53 51°8.944 2°35.016 230 1.1 76.4 15.5
2001-06-05 10:24:58 51°8.945 2°35.018 230.3 1.1 75.9 15.3
2001-06-05 10:25:03 51°8.945 2°35.02 230.8 1.1 74 15.2
2001-06-05 10:25:08 51°8.946 2°35.023 231.2 1.1 75.6 15.5
2001-06-05 10:25:13 51°8.946 2°35.025 231.5 1.1 74.6 15.5
2001-06-05 10:25:18 51°8.947 2°35.027 231.7 1.1 73.6 15.3
2001-06-05 10:25:23 51°8.947 2°35.03 232.2 1.1 73.5 15.3
2001-06-05 10:25:28 51°8.947 2°35.032 232.5 1.1 74.2 15.4
2001-06-05 10:25:33 51°8.948 2°35.035 233 1.1 71.5 15.4
2001-06-05 10:25:38 51°8.948 2°35.037 233.3 1.1 72.3 15.3
2001-06-05 10:25:43 51°8.949 2°35.039 233.3 1.1 71.8 15.4
2001-06-05 10:25:48 51°8.949 2°35.042 233.7 1.2 74.7 15.3
2001-06-05 10:25:53 51°8.95 2°35.044 234 1.1 72.6 15.4
2001-06-05 10:25:58 51°8.95 2°35.047 234.2 1.1 74.3 15.3
2001-06-05 10:26:03 51°8.95 2°35.049 234.7 1.1 73.1 15.3
2001-06-05 10:26:08 51°8.951 2°35.052 234.8 1.2 73.1 15.3
2001-06-05 10:26:13 51°8.952 2°35.054 235.3 1.2 71.1 15.3
2001-06-05 10:26:18 51°8.952 2°35.057 235.7 1.2 72.7 15.4
2001-06-05 10:26:23 51°8.953 2°35.059 236 1.2 71.2 15.4
2001-06-05 10:26:27 51°8.953 2°35.061 236.2 1.2 72.4 15.3
2001-06-05 10:26:33 51°8.954 2°35.064 236.7 1.2 72 15.3
2001-06-05 10:26:38 51°8.954 2°35.067 236.8 1.2 71.6 15.4
2001-06-05 10:26:43 51°8.955 2°35.069 236.8 1.2 72.1 15.4
2001-06-05 10:26:48 51°8.955 2°35.072 237.2 1.2 71.7 15.4
2001-06-05 10:26:53 51°8.956 2°35.074 237.7 1.2 72 15.3
2001-06-05 10:26:58 51°8.956 2°35.077 237.7 1.2 71.1 15.4
2001-06-05 10:27:03 51°8.957 2°35.079 238 1.2 71.3 15.4
2001-06-05 10:27:08 51°8.957 2°35.082 238.3 1.2 70.8 15.3
2001-06-05 10:27:13 51°8.958 2°35.084 238.5 1.2 72.9 15.4
2001-06-05 10:27:17 51°8.958 2°35.086 238.8 1.2 70.7 15.4
2001-06-05 10:27:23 51°8.959 2°35.089 239.2 1.2 70.6 15.4
2001-06-05 10:27:28 51°8.959 2°35.092 239.5 1.2 69.8 15.4
2001-06-05 10:27:33 51°8.96 2°35.094 239.8 1.2 70.3 15.4
2001-06-05 10:27:38 51°8.961 2°35.097 240.2 1.2 70.7 15.2
2001-06-05 10:27:43 51°8.961 2°35.099 240.5 1.2 70.7 15.4
2001-06-05 10:27:47 51°8.962 2°35.101 241 1.2 70.6 15.3
2001-06-05 10:27:53 51°8.962 2°35.104 241.2 1.2 70.6 15.3
2001-06-05 10:27:58 51°8.963 2°35.107 241.7 1.2 70 15.3
2001-06-05 10:28:03 51°8.964 2°35.109 242.3 1.2 66.5 15.4
2001-06-05 10:28:08 51°8.964 2°35.112 242.5 1.2 68.1 15.3
2001-06-05 10:28:13 51°8.965 2°35.114 243 1.2 67.9 15.3
2001-06-05 10:28:17 51°8.965 2°35.116 243.3 1.2 70 15.4
2001-06-05 10:28:23 51°8.966 2°35.119 243.7 1.2 69.8 15.4
2001-06-05 10:28:29 51°8.967 2°35.122 244.3 1.2 69.8 15.4
2001-06-05 10:28:33 51°8.968 2°35.124 244.7 1.2 68.4 15.4
2001-06-05 10:28:38 51°8.968 2°35.127 244.8 1.2 68.3 15.4
2001-06-05 10:28:43 51°8.969 2°35.129 245.2 1.2 67.7 15.4
2001-06-05 10:28:47 51°8.969 2°35.131 245.5 1.2 68.3 15.3
2001-06-05 10:28:53 51°8.97 2°35.134 245.8 1.2 68.4 15.4
2001-06-05 10:28:57 51°8.97 2°35.136 245.8 1.2 68.7 15.4
2001-06-05 10:29:03 51°8.971 2°35.139 246 1.2 67.1 15.3
2001-06-05 10:29:08 51°8.972 2°35.142 246.3 1.3 67.6 15.4
2001-06-05 10:29:13 51°8.972 2°35.144 246.7 1.3 67.7 15.4
2001-06-05 10:29:18 51°8.973 2°35.147 247 1.2 67.4 15.4
2001-06-05 10:29:23 51°8.973 2°35.15 247.2 1.3 66.9 15.4
2001-06-05 10:29:28 51°8.974 2°35.152 247.3 1.3 65.8 15.4
2001-06-05 10:29:33 51°8.975 2°35.155 247.3 1.2 67.2 15.4
2001-06-05 10:29:38 51°8.975 2°35.157 247.5 1.3 68.2 15.4
2001-06-05 10:29:43 51°8.976 2°35.16 248 1.3 68.8 15.4
2001-06-05 10:29:48 51°8.977 2°35.162 248.2 1.3 67.6 15.4
2001-06-05 10:29:53 51°8.977 2°35.165 248.2 1.3 67.1 15.4
2001-06-05 10:29:58 51°8.978 2°35.168 248.5 1.3 67.1 15.3
2001-06-05 10:30:03 51°8.978 2°35.17 248.7 1.3 69.1 15.3
2001-06-05 10:30:07 51°8.979 2°35.172 248.7 1.3 65.8 15.4
2001-06-05 10:30:13 51°8.98 2°35.175 248.7 1.2 67 15.4
2001-06-05 10:30:18 51°8.981 2°35.178 249 1.2 66.6 15.4
2001-06-05 10:30:23 51°8.981 2°35.18 249 1.2 66.8 15.4
2001-06-05 10:30:28 51°8.982 2°35.183 249.2 1.3 67.5 15.4
2001-06-05 10:30:33 51°8.983 2°35.185 249.3 1.3 65.4 15.4
2001-06-05 10:30:38 51°8.983 2°35.188 249.3 1.3 68.2 15.4
2001-06-05 10:30:43 51°8.984 2°35.191 249.7 1.3 65.1 15.4
2001-06-05 10:30:49 51°8.985 2°35.194 249.7 1.3 65.7 15.4
2001-06-05 10:30:53 51°8.986 2°35.196 249.8 1.3 67.3 15.4
2001-06-05 10:30:58 51°8.986 2°35.198 250 1.3 66 15.4
2001-06-05 10:31:03 51°8.987 2°35.201 250 1.3 66.8 15.4
2001-06-05 10:31:08 51°8.988 2°35.203 250.2 1.3 65.8 15.4
2001-06-05 10:31:13 51°8.989 2°35.206 250.5 1.3 67 15.4
2001-06-05 10:31:18 51°8.989 2°35.209 250.7 1.3 68.7 15.4
2001-06-05 10:31:24 51°8.99 2°35.212 250.8 1.3 66.5 15.4
2001-06-05 10:31:27 51°8.99 2°35.214 250.8 1.3 67.1 15.4
2001-06-05 10:31:33 51°8.991 2°35.217 250.8 1.3 67.2 15.4
2001-06-05 10:31:38 51°8.992 2°35.219 251 1.3 67.3 15.4
2001-06-05 10:31:43 51°8.993 2°35.222 251 1.3 67.1 15.4
2001-06-05 10:31:47 51°8.993 2°35.224 251.7 1.3 66.4 15.4
2001-06-05 10:31:53 51°8.994 2°35.227 251.7 1.3 65.9 15.3
2001-06-05 10:31:58 51°8.995 2°35.23 252 1.3 65.9 15.4
2001-06-05 10:32:03 51°8.996 2°35.232 252.2 1.3 65.3 15.4
2001-06-05 10:32:07 51°8.996 2°35.234 252.3 1.3 65.5 15.4
2001-06-05 10:32:13 51°8.997 2°35.238 252.5 1.3 65.5 15.4
2001-06-05 10:32:18 51°8.998 2°35.24 252.8 1.3 66.5 15.4
2001-06-05 10:32:23 51°8.999 2°35.243 252.8 1.3 66.6 15.4
2001-06-05 10:32:28 51°8.999 2°35.245 252.7 1.3 67 15.4
2001-06-05 10:32:34 51°9 2°35.248 252.8 1.3 65.8 15.4
2001-06-05 10:32:38 51°9.001 2°35.25 253 1.3 66.4 15.4
2001-06-05 10:32:43 51°9.002 2°35.253 253 1.3 66.3 15.4
2001-06-05 10:32:48 51°9.003 2°35.256 253.2 1.3 65.4 15.4
2001-06-05 10:32:53 51°9.003 2°35.258 253.2 1.3 65.9 15.4
2001-06-05 10:32:58 51°9.004 2°35.261 253.5 1.3 65.5 15.4
2001-06-05 10:33:03 51°9.005 2°35.263 253.7 1.3 66.1 15.4
2001-06-05 10:33:08 51°9.006 2°35.266 253.7 1.3 65.1 15.4
2001-06-05 10:33:13 51°9.006 2°35.269 254 1.3 66.6 15.3
2001-06-05 10:33:18 51°9.007 2°35.272 254.2 1.3 66.6 15.4
2001-06-05 10:33:23 51°9.007 2°35.274 254.2 1.3 66 15.3
2001-06-05 10:33:27 51°9.008 2°35.277 254.5 1.3 66.5 15.3
2001-06-05 10:33:33 51°9.009 2°35.28 254.7 1.3 65.4 15.3
2001-06-05 10:33:38 51°9.01 2°35.282 255 1.3 66.1 15.3
2001-06-05 10:33:43 51°9.011 2°35.285 255.2 1.3 65.1 15.3
2001-06-05 10:33:48 51°9.011 2°35.288 255.3 1.3 65.6 15.3
2001-06-05 10:33:53 51°9.012 2°35.29 255.5 1.3 65.2 15.3
2001-06-05 10:33:58 51°9.013 2°35.293 255.7 1.3 64.8 15.3
2001-06-05 10:34:03 51°9.014 2°35.296 255.8 1.3 66.3 15.3
2001-06-05 10:34:08 51°9.015 2°35.298 255.8 1.3 66.1 15.3
2001-06-05 10:34:13 51°9.015 2°35.301 256 1.3 66.5 15.3
2001-06-05 10:34:19 51°9.016 2°35.304 256.2 1.3 65.8 15.3
2001-06-05 10:34:23 51°9.017 2°35.306 256.5 1.3 65.4 15.3
2001-06-05 10:34:28 51°9.018 2°35.309 256.7 1.3 65.9 15.3
2001-06-05 10:34:33 51°9.018 2°35.312 256.7 1.4 65.2 15.3
2001-06-05 10:34:38 51°9.019 2°35.314 257 1.3 65.2 15.3
2001-06-05 10:34:43 51°9.02 2°35.317 257.2 1.3 64.8 15.3
2001-06-05 10:34:49 51°9.021 2°35.32 257.3 1.3 65 15.3
2001-06-05 10:34:53 51°9.021 2°35.322 257.3 1.3 65.6 15.3
2001-06-05 10:34:58 51°9.022 2°35.325 257.3 1.3 65.9 15.3
2001-06-05 10:35:03 51°9.023 2°35.327 257.5 1.3 65.9 15.2
2001-06-05 10:35:08 51°9.024 2°35.33 257.5 1.3 67.9 15.2
2001-06-05 10:35:13 51°9.024 2°35.333 257.7 1.3 66.9 15.3
2001-06-05 10:35:18 51°9.025 2°35.335 257.7 1.3 65.1 15.3
2001-06-05 10:35:23 51°9.026 2°35.338 257.7 1.3 64.9 15.3
2001-06-05 10:35:29 51°9.027 2°35.341 257.5 1.3 65.5 15.2
2001-06-05 10:35:33 51°9.027 2°35.343 257.7 1.3 65.3 15.3
2001-06-05 10:35:38 51°9.028 2°35.346 257.7 1.3 65.3 15.3
2001-06-05 10:35:43 51°9.029 2°35.349 257.7 1.3 65 15.3
2001-06-05 10:35:47 51°9.03 2°35.351 257.8 1.3 65.3 15.3
2001-06-05 10:35:53 51°9.031 2°35.354 257.7 1.3 64 15.3
2001-06-05 10:35:58 51°9.031 2°35.357 257.8 1.3 64.8 15.2
2001-06-05 10:36:03 51°9.032 2°35.359 258 1.3 64.9 15.3
2001-06-05 10:36:08 51°9.033 2°35.362 258.2 1.3 64.7 15.3
2001-06-05 10:36:13 51°9.034 2°35.365 258.2 1.3 65 15.2
2001-06-05 10:36:18 51°9.034 2°35.367 258.3 1.3 64.4 15.3
2001-06-05 10:36:23 51°9.035 2°35.37 258.3 1.3 64.6 15.3
2001-06-05 10:36:28 51°9.036 2°35.372 258.5 1.3 65.6 15.3
2001-06-05 10:36:34 51°9.037 2°35.376 258.8 1.3 64.3 15.3
2001-06-05 10:36:37 51°9.038 2°35.377 259 1.3 63.7 15.2
2001-06-05 10:36:43 51°9.038 2°35.381 259.2 1.4 63.4 15.3
2001-06-05 10:36:48 51°9.039 2°35.383 259.5 1.4 63.1 15.2
2001-06-05 10:36:53 51°9.04 2°35.386 259.8 1.4 62.7 15.2
2001-06-05 10:36:58 51°9.041 2°35.388 260 1.3 63 15.2
2001-06-05 10:37:03 51°9.042 2°35.391 260.2 1.4 65.1 15.2
2001-06-05 10:37:07 51°9.042 2°35.393 260.2 1.3 63.9 15.3
2001-06-05 10:37:13 51°9.043 2°35.396 260.5 1.3 65.2 15.3
2001-06-05 10:37:18 51°9.044 2°35.399 260.5 1.3 64.5 15.2
2001-06-05 10:37:23 51°9.045 2°35.402 260.3 1.3 65.7 15.2
2001-06-05 10:37:28 51°9.046 2°35.404 260.3 1.3 65.6 15.2
2001-06-05 10:37:33 51°9.047 2°35.407 260.3 1.3 64.6 15.3
2001-06-05 10:37:37 51°9.047 2°35.409 260.5 1.3 64.5 15.2
2001-06-05 10:37:43 51°9.048 2°35.412 260.5 1.3 65.1 15.3
2001-06-05 10:37:48 51°9.049 2°35.415 260.5 1.3 65 15.3
2001-06-05 10:37:53 51°9.05 2°35.418 260.3 1.4 65 15.2
2001-06-05 10:37:58 51°9.051 2°35.421 260.5 1.3 64.4 15.2
2001-06-05 10:38:03 51°9.052 2°35.423 260.3 1.4 63.7 15.3
2001-06-05 10:38:08 51°9.052 2°35.426 260.7 1.4 63.6 15.2
2001-06-05 10:38:13 51°9.053 2°35.429 260.7 1.3 63.4 15.3
2001-06-05 10:38:18 51°9.054 2°35.431 260.7 1.3 64.8 15.2
2001-06-05 10:38:24 51°9.055 2°35.434 260.8 1.3 63.2 15.3
2001-06-05 10:38:27 51°9.055 2°35.436 260.8 1.4 65 15.2
2001-06-05 10:38:33 51°9.056 2°35.439 260.7 1.4 63.8 15.2
2001-06-05 10:38:38 51°9.057 2°35.442 261 1.4 62.9 15.2
2001-06-05 10:38:43 51°9.058 2°35.445 261.3 1.3 63.8 15.2
2001-06-05 10:38:48 51°9.059 2°35.447 261.5 1.4 63.6 15.2
2001-06-05 10:38:53 51°9.06 2°35.45 261.5 1.4 63.3 15.2
2001-06-05 10:38:58 51°9.061 2°35.453 261.7 1.4 63.5 15.2
2001-06-05 10:39:03 51°9.061 2°35.455 261.8 1.4 63.2 15.2
2001-06-05 10:39:08 51°9.062 2°35.458 262 1.4 63.3 15.3
2001-06-05 10:39:13 51°9.063 2°35.461 262.2 1.4 62.5 15.2
2001-06-05 10:39:18 51°9.064 2°35.464 261.8 1.4 64.9 15.2
2001-06-05 10:39:23 51°9.065 2°35.466 261.8 1.4 63.2 15.2
2001-06-05 10:39:28 51°9.066 2°35.469 261.8 1.4 63.3 15.1
2001-06-05 10:39:33 51°9.067 2°35.472 262 1.4 64.8 15.2
2001-06-05 10:39:38 51°9.068 2°35.474 262.2 1.4 64.3 15.2
2001-06-05 10:39:43 51°9.068 2°35.477 262 1.4 64 15.2
2001-06-05 10:39:47 51°9.069 2°35.479 262.2 1.4 65 15.2
2001-06-05 10:39:53 51°9.07 2°35.483 262.3 1.4 65.6 15.3
2001-06-05 10:39:58 51°9.071 2°35.485 262.2 1.4 64 15.3
2001-06-05 10:40:03 51°9.072 2°35.488 262.3 1.4 63.9 15.2
2001-06-05 10:40:08 51°9.073 2°35.491 262.3 1.4 62.7 15.3
2001-06-05 10:40:13 51°9.073 2°35.494 262.2 1.4 63.5 15.2
2001-06-05 10:40:18 51°9.074 2°35.496 262.5 1.4 63.6 15.2
2001-06-05 10:40:23 51°9.075 2°35.499 262.7 1.4 63.6 15.3
2001-06-05 10:40:28 51°9.076 2°35.502 262.5 1.4 63.2 15.2
2001-06-05 10:40:33 51°9.077 2°35.504 262.3 1.4 62.9 15.2
2001-06-05 10:40:38 51°9.078 2°35.507 262.3 1.4 64.6 15.2
2001-06-05 10:40:43 51°9.079 2°35.51 262.3 1.4 64.3 15.1
2001-06-05 10:40:48 51°9.08 2°35.513 262.5 1.4 63 15.2
2001-06-05 10:40:53 51°9.08 2°35.516 262.7 1.4 63.9 15.2
2001-06-05 10:40:58 51°9.081 2°35.518 262.7 1.4 63.8 15.1
2001-06-05 10:41:03 51°9.082 2°35.521 262.5 1.4 63.7 15.2
2001-06-05 10:41:08 51°9.083 2°35.524 262.5 1.4 64.3 15.2
2001-06-05 10:41:13 51°9.084 2°35.527 262.5 1.4 64.1 15.2
2001-06-05 10:41:18 51°9.084 2°35.529 262.7 1.4 64.1 15.2
2001-06-05 10:41:23 51°9.085 2°35.532 262.7 1.4 63.1 15.2
2001-06-05 10:41:27 51°9.086 2°35.534 262.5 1.4 63 15.2
2001-06-05 10:41:33 51°9.087 2°35.538 262.7 1.4 62.6 15.2
2001-06-05 10:41:38 51°9.088 2°35.54 262.7 1.4 62.9 15.3
2001-06-05 10:41:43 51°9.089 2°35.543 262.8 1.4 62.5 15.2
2001-06-05 10:41:48 51°9.09 2°35.546 263 1.4 63.3 15.2
2001-06-05 10:41:53 51°9.091 2°35.549 263 1.4 64.3 15.2
2001-06-05 10:41:58 51°9.092 2°35.552 263 1.4 63.3 15.2
2001-06-05 10:42:03 51°9.092 2°35.554 262.8 1.4 65.5 15.2
2001-06-05 10:42:08 51°9.093 2°35.557 262.7 1.4 63.5 15.2
2001-06-05 10:42:13 51°9.094 2°35.56 263 1.4 65.2 15.2
2001-06-05 10:42:17 51°9.095 2°35.562 262.8 1.4 65.6 15.1
2001-06-05 10:42:23 51°9.096 2°35.565 262.7 1.4 64.5 15.2
2001-06-05 10:42:28 51°9.096 2°35.568 262.7 1.4 65.1 15.2
2001-06-05 10:42:33 51°9.097 2°35.571 262.7 1.4 64.2 15.2
2001-06-05 10:42:38 51°9.098 2°35.574 262.8 1.4 64.9 15.2
2001-06-05 10:42:43 51°9.099 2°35.577 262.7 1.4 64 15.1
2001-06-05 10:42:48 51°9.1 2°35.579 262.2 1.4 63.8 15.2
2001-06-05 10:42:53 51°9.101 2°35.582 262.2 1.4 64.3 15.2
2001-06-05 10:42:58 51°9.102 2°35.585 262 1.4 64 15.1
2001-06-05 10:43:03 51°9.102 2°35.588 262.2 1.4 64.8 15.1
2001-06-05 10:43:08 51°9.103 2°35.591 262.2 1.4 65.2 15.1
2001-06-05 10:43:13 51°9.104 2°35.593 262 1.4 65.2 15.2
2001-06-05 10:43:18 51°9.105 2°35.596 261.8 1.4 64 15.1
2001-06-05 10:43:23 51°9.106 2°35.599 261.5 1.4 65 15.1
2001-06-05 10:43:28 51°9.106 2°35.602 261.7 1.4 65 15.1
2001-06-05 10:43:33 51°9.107 2°35.605 261.2 1.4 64.7 15.1
2001-06-05 10:43:38 51°9.108 2°35.608 261 1.4 65.3 15.2
2001-06-05 10:43:43 51°9.109 2°35.611 261 1.4 65.2 15.2
2001-06-05 10:43:48 51°9.109 2°35.614 260.7 1.4 65.7 15.1
2001-06-05 10:43:53 51°9.11 2°35.617 260.7 1.4 65.6 15.1
2001-06-05 10:43:58 51°9.111 2°35.62 260.5 1.4 65.9 15.2
2001-06-05 10:44:03 51°9.112 2°35.622 260.7 1.4 65.4 15.1
2001-06-05 10:44:07 51°9.112 2°35.625 260.3 1.4 65.5 15.1
2001-06-05 10:44:13 51°9.114 2°35.628 260.5 1.4 65 15.1
2001-06-05 10:44:18 51°9.114 2°35.631 260.5 1.4 65.3 15.1
2001-06-05 10:44:23 51°9.115 2°35.634 260.5 1.4 66.2 15.1
2001-06-05 10:44:28 51°9.116 2°35.637 260.5 1.4 66 15.1
2001-06-05 10:44:33 51°9.117 2°35.64 260.5 1.4 65 15.1
2001-06-05 10:44:38 51°9.118 2°35.643 260.5 1.4 65.7 15.2
2001-06-05 10:44:43 51°9.118 2°35.646 260.7 1.5 65.1 15.2
2001-06-05 10:44:48 51°9.119 2°35.649 260.5 1.4 65.8 15.2
2001-06-05 10:44:53 51°9.12 2°35.652 260.3 1.4 65.3 15.2
2001-06-05 10:44:58 51°9.121 2°35.655 260.5 1.4 67.2 15.1
2001-06-05 10:45:03 51°9.122 2°35.657 260.3 1.4 65.7 15.1
2001-06-05 10:45:08 51°9.122 2°35.66 260.3 1.4 65.7 15.1
2001-06-05 10:45:13 51°9.123 2°35.663 260.3 1.4 65.9 15
2001-06-05 10:45:18 51°9.124 2°35.666 260.2 1.4 65.3 15
2001-06-05 10:45:23 51°9.125 2°35.669 260.2 1.4 68 15.1
2001-06-05 10:45:27 51°9.125 2°35.672 259.8 1.5 67.7 15.1
2001-06-05 10:45:33 51°9.126 2°35.675 259.8 1.5 68 15.2
2001-06-05 10:45:38 51°9.127 2°35.678 259.7 1.5 68.3 15.1
2001-06-05 10:45:43 51°9.128 2°35.681 259.3 1.5 67.6 15.2
2001-06-05 10:45:48 51°9.129 2°35.684 259.5 1.5 67.7 15.2
2001-06-05 10:45:53 51°9.13 2°35.687 259.3 1.5 67.5 15.1
2001-06-05 10:45:57 51°9.13 2°35.689 259.5 1.5 66.9 15.2
2001-06-05 10:46:03 51°9.131 2°35.693 259.3 1.5 67.4 15.2
2001-06-05 10:46:08 51°9.132 2°35.696 259.3 1.5 67.5 15.2
2001-06-05 10:46:13 51°9.133 2°35.699 259.5 1.5 67 15.2
2001-06-05 10:46:18 51°9.133 2°35.702 259.3 1.5 67.7 15.1
2001-06-05 10:46:23 51°9.134 2°35.705 259.3 1.5 67.5 15.1
2001-06-05 10:46:27 51°9.135 2°35.707 259.3 1.5 66.3 15.1
2001-06-05 10:46:33 51°9.136 2°35.711 259.3 1.5 66.5 15.1
2001-06-05 10:46:37 51°9.136 2°35.713 259.2 1.5 68.1 15.1
2001-06-05 10:46:43 51°9.137 2°35.717 259 1.5 68.5 15.1
2001-06-05 10:46:48 51°9.138 2°35.72 258.8 1.5 69.1 15.1
2001-06-05 10:46:53 51°9.139 2°35.723 259 1.5 68.7 15.1
2001-06-05 10:46:58 51°9.139 2°35.726 259 1.5 68.4 15.1
2001-06-05 10:47:03 51°9.14 2°35.729 258.7 1.5 67.6 15.2
2001-06-05 10:47:08 51°9.141 2°35.732 259 1.5 68.7 15.2
2001-06-05 10:47:13 51°9.141 2°35.736 258.8 1.5 68 15.2
2001-06-05 10:47:18 51°9.142 2°35.739 258.7 1.5 69.8 15.2
2001-06-05 10:47:23 51°9.143 2°35.742 258.7 1.5 67.4 15.3
2001-06-05 10:47:28 51°9.144 2°35.745 258.7 1.5 67.9 15.1
2001-06-05 10:47:33 51°9.144 2°35.748 258.5 1.5 67.5 15.2
2001-06-05 10:47:38 51°9.145 2°35.751 258.7 1.5 67.8 15.2
2001-06-05 10:47:43 51°9.146 2°35.754 258.8 1.5 68.9 15.2
2001-06-05 10:47:48 51°9.147 2°35.757 258.8 1.5 66.3 15.2
2001-06-05 10:47:53 51°9.147 2°35.76 258.7 1.5 68.3 15.2
2001-06-05 10:47:58 51°9.148 2°35.763 259 1.5 67.9 15.2
2001-06-05 10:48:03 51°9.149 2°35.766 259 1.5 68.1 15.2
2001-06-05 10:48:08 51°9.15 2°35.769 258.8 1.5 68 15.2
2001-06-05 10:48:13 51°9.151 2°35.772 258.8 1.5 67.6 15.2
2001-06-05 10:48:18 51°9.151 2°35.775 259 1.5 67.2 15.2
2001-06-05 10:48:23 51°9.152 2°35.778 259.2 1.5 67.4 15.1
2001-06-05 10:48:28 51°9.153 2°35.781 259.3 1.5 66.9 15.1
2001-06-05 10:48:33 51°9.154 2°35.784 259.3 1.5 67.2 15.2
2001-06-05 10:48:38 51°9.155 2°35.787 259.7 1.5 68.3 15.1
2001-06-05 10:48:43 51°9.156 2°35.79 259.8 1.5 67.7 15.2
2001-06-05 10:48:49 51°9.157 2°35.794 260 1.5 67.8 15.2
2001-06-05 10:48:53 51°9.157 2°35.796 259.8 1.5 67.9 15.2
2001-06-05 10:48:58 51°9.158 2°35.8 260 1.5 69.2 15.2
2001-06-05 10:49:03 51°9.159 2°35.803 260.3 1.5 67.4 15.2
2001-06-05 10:49:08 51°9.16 2°35.806 260.5 1.5 67.2 15.2
2001-06-05 10:49:13 51°9.16 2°35.809 260.5 1.5 68.2 15.2
2001-06-05 10:49:18 51°9.161 2°35.812 260.5 1.5 68.3 15.2
2001-06-05 10:49:23 51°9.162 2°35.815 260.5 1.5 68.7 15.2
2001-06-05 10:49:28 51°9.163 2°35.818 260.8 1.5 68.8 15.2
2001-06-05 10:49:33 51°9.163 2°35.821 260.8 1.5 68.3 15.2
2001-06-05 10:49:38 51°9.164 2°35.825 261 1.5 67.6 15.2
2001-06-05 10:49:43 51°9.165 2°35.828 261 1.5 67.4 15.2
2001-06-05 10:49:48 51°9.166 2°35.831 260.8 1.5 67.8 15.1
2001-06-05 10:49:53 51°9.167 2°35.834 260.8 1.5 69.1 15.1
2001-06-05 10:49:59 51°9.167 2°35.838 260.8 1.5 68.8 15.2
2001-06-05 10:50:03 51°9.168 2°35.84 260.8 1.5 67.6 15.2
2001-06-05 10:50:08 51°9.169 2°35.844 260.8 1.5 68.1 15.2
2001-06-05 10:50:13 51°9.169 2°35.847 261 1.5 70.6 15.2
2001-06-05 10:50:18 51°9.17 2°35.85 261 1.6 70 15.2
2001-06-05 10:50:23 51°9.171 2°35.853 261 1.5 68.9 15.2
2001-06-05 10:50:28 51°9.172 2°35.856 260.8 1.5 67.9 15.1
2001-06-05 10:50:33 51°9.173 2°35.859 260.8 1.5 65.9 15.1
2001-06-05 10:50:38 51°9.174 2°35.862 260.8 1.5 66.9 15.2
2001-06-05 10:50:43 51°9.174 2°35.865 261 1.5 67 15.2
2001-06-05 10:50:48 51°9.175 2°35.869 260.8 1.5 67.9 15.1
2001-06-05 10:50:53 51°9.176 2°35.872 261.2 1.5 67.8 15.1
2001-06-05 10:50:58 51°9.177 2°35.875 261.2 1.6 67.6 15.2
2001-06-05 10:51:03 51°9.178 2°35.878 261.3 1.6 66.4 15.2
2001-06-05 10:51:07 51°9.178 2°35.881 261.3 1.6 67.1 15.2
2001-06-05 10:51:13 51°9.179 2°35.884 261.3 1.6 66.6 15.2
2001-06-05 10:51:18 51°9.18 2°35.888 261.5 1.6 66.1 15.1
2001-06-05 10:51:23 51°9.181 2°35.891 261.2 1.6 67.4 15.1
2001-06-05 10:51:28 51°9.182 2°35.894 261.2 1.6 66.9 15.2
2001-06-05 10:51:34 51°9.183 2°35.898 261.3 1.6 67.5 15.1
2001-06-05 10:51:37 51°9.183 2°35.9 261.2 1.6 68 15.2
2001-06-05 10:51:43 51°9.184 2°35.904 261.3 1.6 67.4 15.3
2001-06-05 10:51:48 51°9.185 2°35.907 261.5 1.6 68 15.2
2001-06-05 10:51:53 51°9.186 2°35.91 261.5 1.6 66.2 15.2
2001-06-05 10:51:58 51°9.187 2°35.913 261.5 1.5 67.5 15.2
2001-06-05 10:52:03 51°9.188 2°35.916 261.5 1.5 67.8 15.2
2001-06-05 10:52:08 51°9.189 2°35.919 261.7 1.6 67.6 15.2
2001-06-05 10:52:13 51°9.189 2°35.923 261.5 1.6 68.3 15.2
2001-06-05 10:52:18 51°9.19 2°35.926 261.5 1.6 67.5 15.3
2001-06-05 10:52:23 51°9.191 2°35.929 261.8 1.5 68.5 15.2
2001-06-05 10:52:28 51°9.192 2°35.932 262 1.6 67.5 15.2
2001-06-05 10:52:33 51°9.193 2°35.935 261.7 1.6 68.7 15.2
2001-06-05 10:52:38 51°9.194 2°35.938 262 1.6 67.6 15.2
2001-06-05 10:52:43 51°9.195 2°35.942 262 1.6 67.7 15.2
2001-06-05 10:52:47 51°9.195 2°35.944 262 1.6 67.7 15.2
2001-06-05 10:52:53 51°9.196 2°35.948 262 1.6 66.4 15.1
2001-06-05 10:52:58 51°9.197 2°35.951 262.2 1.6 66.8 15.1
2001-06-05 10:53:03 51°9.198 2°35.954 262.3 1.6 66.6 15.1
2001-06-05 10:53:08 51°9.199 2°35.958 262.3 1.6 66.6 15.2
2001-06-05 10:53:13 51°9.2 2°35.961 262.5 1.6 67.2 15.2
2001-06-05 10:53:18 51°9.2 2°35.964 262.7 1.6 67.1 15.2
2001-06-05 10:53:23 51°9.201 2°35.967 262.5 1.6 66.9 15.2
2001-06-05 10:53:28 51°9.202 2°35.97 262.5 1.6 66.9 15.2
2001-06-05 10:53:33 51°9.203 2°35.974 262.8 1.6 67.6 15.2
2001-06-05 10:53:38 51°9.204 2°35.977 262.7 1.6 67.8 15.2
2001-06-05 10:53:43 51°9.205 2°35.98 262.7 1.6 67.8 15.2
2001-06-05 10:53:48 51°9.205 2°35.983 262.7 1.6 67.2 15.2
2001-06-05 10:53:53 51°9.206 2°35.986 262.8 1.6 67.3 15.2
2001-06-05 10:53:58 51°9.207 2°35.99 263 1.6 67.2 15.2
2001-06-05 10:54:04 51°9.208 2°35.994 263 1.6 67.9 15.2
2001-06-05 10:54:07 51°9.209 2°35.996 263 1.6 66.4 15.2
2001-06-05 10:54:13 51°9.209 2°35.999 263 1.6 67.5 15.2
2001-06-05 10:54:18 51°9.21 2°36.003 263.3 1.6 67.7 15.2
2001-06-05 10:54:23 51°9.211 2°36.006 263.5 1.6 67.2 15.2
2001-06-05 10:54:28 51°9.212 2°36.009 263.5 1.6 67.4 15.2
2001-06-05 10:54:33 51°9.213 2°36.012 263.7 1.6 67.2 15.2
2001-06-05 10:54:37 51°9.214 2°36.015 263.8 1.6 67.7 15.2
2001-06-05 10:54:43 51°9.215 2°36.018 263.8 1.6 67.1 15.2
2001-06-05 10:54:47 51°9.215 2°36.021 264 1.6 69.2 15.2
2001-06-05 10:54:53 51°9.216 2°36.025 264 1.6 67.5 15.1
2001-06-05 10:54:58 51°9.217 2°36.028 264.2 1.6 68.2 15.1
2001-06-05 10:55:03 51°9.218 2°36.031 264.2 1.6 68.7 15.1
2001-06-05 10:55:08 51°9.218 2°36.035 264.2 1.6 68.7 15.1
2001-06-05 10:55:13 51°9.219 2°36.038 264.2 1.6 68.3 15.2
2001-06-05 10:55:18 51°9.22 2°36.041 264 1.6 67.7 15.2
2001-06-05 10:55:23 51°9.221 2°36.044 264 1.6 69.3 15.2
2001-06-05 10:55:27 51°9.222 2°36.047 264 1.6 68.4 15.2
2001-06-05 10:55:33 51°9.223 2°36.051 264.2 1.6 68.1 15.2
2001-06-05 10:55:38 51°9.224 2°36.054 264.2 1.6 68.5 15.2
2001-06-05 10:55:43 51°9.224 2°36.057 264 1.6 67.6 15.2
2001-06-05 10:55:48 51°9.225 2°36.061 264.2 1.6 67.1 15.2
2001-06-05 10:55:53 51°9.226 2°36.064 264.3 1.6 67.1 15.2
2001-06-05 10:55:58 51°9.227 2°36.067 264.5 1.6 66.9 15.2
2001-06-05 10:56:03 51°9.228 2°36.071 264.3 1.6 68 15.2
2001-06-05 10:56:08 51°9.229 2°36.074 264.5 1.6 68.1 15.2
2001-06-05 10:56:13 51°9.23 2°36.077 264.7 1.6 68.1 15.2
2001-06-05 10:56:18 51°9.23 2°36.08 264.7 1.6 68.2 15.2
2001-06-05 10:56:23 51°9.231 2°36.083 264.7 1.6 67.4 15.2
2001-06-05 10:56:27 51°9.232 2°36.086 264.7 1.6 68.1 15.2
2001-06-05 10:56:33 51°9.233 2°36.09 264.8 1.6 68 15.2
2001-06-05 10:56:38 51°9.234 2°36.093 264.8 1.6 66.7 15.2
2001-06-05 10:56:43 51°9.235 2°36.096 264.8 1.6 67.8 15.2
2001-06-05 10:56:48 51°9.236 2°36.1 264.7 1.6 66.9 15.2
2001-06-05 10:56:54 51°9.237 2°36.104 264.7 1.6 67.1 15.2
2001-06-05 10:56:58 51°9.238 2°36.106 264.7 1.6 67.2 15.2
2001-06-05 10:57:03 51°9.239 2°36.11 264.7 1.6 67.6 15.2
2001-06-05 10:57:08 51°9.239 2°36.113 264.8 1.6 68.4 15.2
2001-06-05 10:57:13 51°9.24 2°36.116 264.8 1.6 67.8 15.2
2001-06-05 10:57:18 51°9.241 2°36.119 264.8 1.6 68.2 15.2
2001-06-05 10:57:23 51°9.242 2°36.123 264.7 1.6 68.2 15.2
2001-06-05 10:57:27 51°9.243 2°36.125 264.7 1.6 68 15.2
2001-06-05 10:57:33 51°9.244 2°36.129 264.7 1.6 67.2 15.1
2001-06-05 10:57:38 51°9.244 2°36.133 264.7 1.6 68.5 15.2
2001-06-05 10:57:43 51°9.245 2°36.136 264.8 1.6 68.1 15.1
2001-06-05 10:57:48 51°9.246 2°36.139 264.7 1.6 68.4 15.2
2001-06-05 10:57:53 51°9.247 2°36.143 264.5 1.6 68.1 15.2
2001-06-05 10:57:57 51°9.248 2°36.145 264.7 1.6 68.3 15.1
2001-06-05 10:58:03 51°9.249 2°36.149 264.7 1.6 67.4 15.1
2001-06-05 10:58:08 51°9.25 2°36.153 264.8 1.6 67.3 15
2001-06-05 10:58:13 51°9.251 2°36.156 264.8 1.6 67.5 15.1
2001-06-05 10:58:18 51°9.251 2°36.159 264.8 1.6 67.5 15.1
2001-06-05 10:58:23 51°9.252 2°36.162 265 1.6 69.6 15.2
2001-06-05 10:58:27 51°9.253 2°36.165 265 1.6 68.2 15.2
2001-06-05 10:58:33 51°9.254 2°36.169 265 1.6 68.7 15.2
2001-06-05 10:58:37 51°9.254 2°36.172 265.2 1.6 68.8 15.2
2001-06-05 10:58:43 51°9.256 2°36.176 265.2 1.6 67.4 15.2
2001-06-05 10:58:48 51°9.257 2°36.179 265.2 1.6 67.2 15.2
2001-06-05 10:58:53 51°9.257 2°36.183 265.5 1.6 69 15.2
2001-06-05 10:58:58 51°9.258 2°36.186 265.5 1.6 67.4 15.2
2001-06-05 10:59:03 51°9.259 2°36.189 265.5 1.6 68.9 15.2
2001-06-05 10:59:08 51°9.26 2°36.193 265.7 1.6 68.6 15.2
2001-06-05 10:59:13 51°9.261 2°36.196 265.5 1.6 69.4 15.2
2001-06-05 10:59:18 51°9.262 2°36.2 265.5 1.6 69.3 15.2
2001-06-05 10:59:23 51°9.263 2°36.203 265.5 1.6 67.6 15.2
2001-06-05 10:59:27 51°9.263 2°36.206 265.5 1.6 67.7 15.2
2001-06-05 10:59:33 51°9.264 2°36.21 265.7 1.6 68 15.2
2001-06-05 10:59:38 51°9.265 2°36.213 265.7 1.6 68.2 15.1
2001-06-05 10:59:43 51°9.266 2°36.217 265.2 1.7 68.6 15.1
2001-06-05 10:59:49 51°9.267 2°36.221 265.2 1.7 68.2 15.1
2001-06-05 10:59:53 51°9.267 2°36.223 265.3 1.7 68 15.1
2001-06-05 10:59:57 51°9.268 2°36.226 265.2 1.7 69.8 15.1
2001-06-05 11:00:03 51°9.269 2°36.23 265.2 1.7 68.4 15.2
2001-06-05 11:00:08 51°9.27 2°36.234 264.8 1.7 68.6 15.1
2001-06-05 11:00:13 51°9.271 2°36.237 264.8 1.7 69.5 15.1
2001-06-05 11:00:18 51°9.272 2°36.24 264.7 1.7 68.5 15.1
2001-06-05 11:00:23 51°9.272 2°36.244 264.3 1.7 69 15.1
2001-06-05 11:00:28 51°9.273 2°36.247 264.3 1.7 68.1 15.1
2001-06-05 11:00:33 51°9.274 2°36.25 264.3 1.7 68.5 15.1
2001-06-05 11:00:37 51°9.274 2°36.253 264 1.7 69.3 15.1
2001-06-05 11:00:43 51°9.275 2°36.257 263.8 1.7 69.6 15.1
2001-06-05 11:00:48 51°9.276 2°36.261 263.8 1.7 69 15.1
2001-06-05 11:00:53 51°9.277 2°36.264 263.7 1.7 70.1 15.1
2001-06-05 11:00:58 51°9.278 2°36.268 263.7 1.7 70 15.1
2001-06-05 11:01:04 51°9.279 2°36.272 263.5 1.7 69.6 15.1
2001-06-05 11:01:07 51°9.28 2°36.274 263.5 1.6 68.1 15.1
2001-06-05 11:01:13 51°9.28 2°36.278 263.5 1.6 68.6 15.1
2001-06-05 11:01:18 51°9.281 2°36.281 263.5 1.7 69.7 15.1
2001-06-05 11:01:23 51°9.282 2°36.285 263.5 1.7 68.5 15.2
2001-06-05 11:01:28 51°9.283 2°36.288 263.5 1.7 68.6 15.1
2001-06-05 11:01:34 51°9.284 2°36.292 263.5 1.7 68.9 15.2
2001-06-05 11:01:38 51°9.285 2°36.295 263.5 1.7 68.6 15.1
2001-06-05 11:01:43 51°9.285 2°36.299 263.5 1.7 69.6 15.1
2001-06-05 11:01:48 51°9.286 2°36.302 263.5 1.7 69.9 15.1
2001-06-05 11:01:53 51°9.287 2°36.306 263.3 1.7 69.5 15.1
2001-06-05 11:01:58 51°9.288 2°36.309 263.5 1.6 69.7 15.1
2001-06-05 11:02:03 51°9.289 2°36.312 263.5 1.7 69.4 15.2
2001-06-05 11:02:07 51°9.289 2°36.315 263.5 1.7 70.5 15.2
2001-06-05 11:02:13 51°9.29 2°36.319 263.5 1.7 68.2 15.2
2001-06-05 11:02:18 51°9.291 2°36.323 263.3 1.7 68.8 15.2
2001-06-05 11:02:23 51°9.292 2°36.326 263.5 1.7 70.1 15.2
2001-06-05 11:02:28 51°9.292 2°36.33 263.8 1.7 70.7 15.2
2001-06-05 11:02:33 51°9.293 2°36.333 263.8 1.7 68.9 15.1
2001-06-05 11:02:38 51°9.294 2°36.337 263.5 1.7 70.1 15.1
2001-06-05 11:02:43 51°9.295 2°36.34 263.7 1.7 69.4 15.2
2001-06-05 11:02:48 51°9.296 2°36.344 263.7 1.7 68.6 15.1
2001-06-05 11:02:53 51°9.296 2°36.347 263.5 1.7 71.2 15.2
2001-06-05 11:02:58 51°9.297 2°36.351 263.7 1.7 69.9 15.2
2001-06-05 11:03:03 51°9.298 2°36.354 263.5 1.7 70.4 15.2
2001-06-05 11:03:08 51°9.299 2°36.357 263.5 1.7 68.9 15.2
2001-06-05 11:03:13 51°9.299 2°36.361 263.7 1.6 70.9 15.1
2001-06-05 11:03:18 51°9.3 2°36.364 263.5 1.7 70.7 15.1
2001-06-05 11:03:24 51°9.301 2°36.368 263.3 1.7 69.9 15.1
2001-06-05 11:03:27 51°9.301 2°36.371 263.3 1.7 69.4 15.1
2001-06-05 11:03:33 51°9.302 2°36.375 263.2 1.7 69.7 15.1
2001-06-05 11:03:38 51°9.303 2°36.378 263.2 1.7 70.6 15.1
2001-06-05 11:03:43 51°9.304 2°36.382 263 1.7 69.5 15.1
2001-06-05 11:03:48 51°9.305 2°36.385 263 1.7 69.4 15.1
2001-06-05 11:03:54 51°9.305 2°36.389 263.3 1.7 70.7 15.1
2001-06-05 11:03:58 51°9.306 2°36.392 263 1.7 70.9 15.1
2001-06-05 11:04:03 51°9.307 2°36.395 262.8 1.7 70.8 15.1
2001-06-05 11:04:08 51°9.308 2°36.399 262.8 1.7 69.7 15.1
2001-06-05 11:04:13 51°9.308 2°36.402 262.7 1.7 68.4 15.1
2001-06-05 11:04:18 51°9.309 2°36.406 262.7 1.7 68.6 15.1
2001-06-05 11:04:23 51°9.31 2°36.409 262.8 1.7 69.7 15.2
2001-06-05 11:04:28 51°9.311 2°36.413 262.7 1.7 69.6 15.2
2001-06-05 11:04:33 51°9.311 2°36.416 262.5 1.7 71.2 15.2
2001-06-05 11:04:38 51°9.312 2°36.42 262.7 1.7 71.1 15.2
2001-06-05 11:04:43 51°9.313 2°36.423 262.3 1.7 70.9 15.2
2001-06-05 11:04:47 51°9.314 2°36.426 262.2 1.7 71.4 15.1
2001-06-05 11:04:53 51°9.315 2°36.43 261.8 1.7 70 15.1
2001-06-05 11:04:58 51°9.315 2°36.434 261.8 1.7 71.6 15.1
2001-06-05 11:05:03 51°9.316 2°36.438 261.7 1.7 70.5 15.1
2001-06-05 11:05:08 51°9.317 2°36.441 261.3 1.7 70.2 15.1
2001-06-05 11:05:13 51°9.318 2°36.444 261.5 1.7 71 15.1
2001-06-05 11:05:17 51°9.318 2°36.447 261.3 1.7 69.8 15.1
2001-06-05 11:05:23 51°9.319 2°36.452 261 1.7 71.4 15.1
2001-06-05 11:05:28 51°9.32 2°36.455 261 1.7 71.5 15
2001-06-05 11:05:33 51°9.321 2°36.458 261 1.7 70.9 15.1
2001-06-05 11:05:39 51°9.322 2°36.463 260.8 1.7 71.6 15.1
2001-06-05 11:05:43 51°9.322 2°36.466 260.7 1.7 70.7 15.1
2001-06-05 11:05:48 51°9.323 2°36.469 260.5 1.7 72.1 15.1
2001-06-05 11:05:53 51°9.324 2°36.473 260.3 1.7 70.9 15.1
2001-06-05 11:05:58 51°9.325 2°36.476 260.2 1.7 71 15.1
2001-06-05 11:06:04 51°9.326 2°36.48 260.2 1.7 71.1 15.1
2001-06-05 11:06:07 51°9.326 2°36.483 260.2 1.7 71.7 15
2001-06-05 11:06:13 51°9.327 2°36.487 260.2 1.7 71.8 15
2001-06-05 11:06:18 51°9.328 2°36.49 259.8 1.7 71.8 15.1
2001-06-05 11:06:23 51°9.328 2°36.494 259.8 1.7 71.2 15
2001-06-05 11:06:28 51°9.329 2°36.497 259.8 1.7 71.6 15
2001-06-05 11:06:34 51°9.33 2°36.502 260.2 1.7 71.8 15
2001-06-05 11:06:38 51°9.331 2°36.504 260.2 1.7 71.2 15
2001-06-05 11:06:43 51°9.331 2°36.508 260 1.7 72.3 15
2001-06-05 11:06:49 51°9.332 2°36.512 260 1.7 71.7 14.8
2001-06-05 11:06:53 51°9.333 2°36.515 260.3 1.7 71.8 14.9
2001-06-05 11:06:58 51°9.334 2°36.519 260.3 1.7 71.4 15
2001-06-05 11:07:03 51°9.334 2°36.522 260.3 1.7 70.4 15
2001-06-05 11:07:08 51°9.335 2°36.526 260.3 1.7 72.5 15.1
2001-06-05 11:07:13 51°9.336 2°36.529 260.5 1.7 71.8 15.1
2001-06-05 11:07:19 51°9.337 2°36.534 260.7 1.7 71.4 15.1
2001-06-05 11:07:23 51°9.337 2°36.536 260.7 1.7 70.8 15.1
2001-06-05 11:07:27 51°9.338 2°36.539 260.7 1.7 71.6 15.1
2001-06-05 11:07:33 51°9.339 2°36.544 260.8 1.7 70.8 15.2
2001-06-05 11:07:38 51°9.34 2°36.547 260.8 1.7 70.7 15.2
2001-06-05 11:07:43 51°9.341 2°36.551 260.8 1.7 71.2 15.2
2001-06-05 11:07:48 51°9.342 2°36.555 261.2 1.7 71.7 15.2
2001-06-05 11:07:53 51°9.343 2°36.558 261.2 1.7 70.5 15.2
2001-06-05 11:07:58 51°9.343 2°36.562 261.3 1.7 70.8 15.1
2001-06-05 11:08:03 51°9.344 2°36.566 261.3 1.7 71.7 15.2
2001-06-05 11:08:07 51°9.344 2°36.569 261.3 1.7 70.8 15.2
2001-06-05 11:08:13 51°9.345 2°36.573 261.7 1.7 71.2 15.2
2001-06-05 11:08:18 51°9.346 2°36.577 261.8 1.7 70.9 15.1
2001-06-05 11:08:23 51°9.347 2°36.58 261.7 1.7 71.9 15.2
2001-06-05 11:08:28 51°9.347 2°36.584 261.8 1.8 72 15.2
2001-06-05 11:08:34 51°9.348 2°36.588 261.8 1.7 71.6 15.2
2001-06-05 11:08:38 51°9.349 2°36.591 261.8 1.7 71.2 15.2
2001-06-05 11:08:43 51°9.35 2°36.595 261.7 1.7 70.6 15.2
2001-06-05 11:08:48 51°9.35 2°36.598 261.8 1.7 70.9 15.2
2001-06-05 11:08:53 51°9.351 2°36.602 261.8 1.7 70.5 15.1
2001-06-05 11:08:58 51°9.352 2°36.606 262 1.7 71 15.1
2001-06-05 11:09:03 51°9.353 2°36.609 262 1.7 71.2 15.2
2001-06-05 11:09:08 51°9.353 2°36.613 262 1.7 71.4 15.2
2001-06-05 11:09:13 51°9.354 2°36.617 262 1.8 70.3 15.2
2001-06-05 11:09:18 51°9.355 2°36.62 262 1.8 70.7 15.1
2001-06-05 11:09:23 51°9.356 2°36.624 262 1.8 71.6 15.1
2001-06-05 11:09:27 51°9.357 2°36.627 262 1.8 71.4 15.1
2001-06-05 11:09:33 51°9.358 2°36.631 262.3 1.8 70.5 15.2
2001-06-05 11:09:38 51°9.358 2°36.635 262.3 1.7 71.5 15.1
2001-06-05 11:09:43 51°9.359 2°36.639 262.5 1.8 71.1 15.2
2001-06-05 11:09:48 51°9.36 2°36.642 262.5 1.8 70.9 15.2
2001-06-05 11:09:53 51°9.361 2°36.646 262.5 1.8 72.4 15.2
2001-06-05 11:09:57 51°9.362 2°36.649 262.5 1.8 72.4 15.2
2001-06-05 11:10:03 51°9.362 2°36.653 262.3 1.8 71.3 15.2
2001-06-05 11:10:08 51°9.363 2°36.657 262.3 1.8 70.3 15.1
2001-06-05 11:10:13 51°9.364 2°36.66 262.7 1.8 70.2 15.1
2001-06-05 11:10:19 51°9.365 2°36.665 262.5 1.8 70.7 15.1
2001-06-05 11:10:23 51°9.366 2°36.668 262.7 1.8 71.6 15.1
2001-06-05 11:10:28 51°9.367 2°36.671 262.7 1.8 71.4 15.1
2001-06-05 11:10:33 51°9.367 2°36.675 262.7 1.8 70.4 15.2
2001-06-05 11:10:38 51°9.368 2°36.679 262.7 1.8 70.9 15.2
2001-06-05 11:10:43 51°9.369 2°36.682 262.7 1.8 69.8 15.1
2001-06-05 11:10:49 51°9.37 2°36.687 262.5 1.8 69.9 15.1
2001-06-05 11:10:54 51°9.371 2°36.69 262.5 1.8 71.5 15.1
2001-06-05 11:10:58 51°9.371 2°36.693 262.3 1.8 71 15.1
2001-06-05 11:11:03 51°9.372 2°36.697 262.5 1.8 70.8 15.1
2001-06-05 11:11:08 51°9.373 2°36.7 262.3 1.8 70.5 15.1
2001-06-05 11:11:13 51°9.374 2°36.704 262.2 1.8 70.2 15.1
2001-06-05 11:11:18 51°9.375 2°36.708 262.2 1.8 70 15.1
2001-06-05 11:11:23 51°9.376 2°36.711 262 1.8 71.3 15.1
2001-06-05 11:11:28 51°9.376 2°36.715 262 1.8 71.5 15.1
2001-06-05 11:11:33 51°9.377 2°36.718 261.8 1.8 70.8 15.1
2001-06-05 11:11:38 51°9.378 2°36.722 261.8 1.8 69.9 15
2001-06-05 11:11:43 51°9.379 2°36.726 261.8 1.8 70 15
2001-06-05 11:11:48 51°9.38 2°36.73 261.8 1.8 71.5 15
2001-06-05 11:11:53 51°9.38 2°36.733 261.8 1.8 71.6 15
2001-06-05 11:11:58 51°9.381 2°36.737 261.5 1.8 71.2 15
2001-06-05 11:12:03 51°9.382 2°36.741 261.5 1.8 70.7 15
2001-06-05 11:12:08 51°9.383 2°36.744 261.3 1.8 70.7 15
2001-06-05 11:12:13 51°9.384 2°36.748 261.2 1.8 70.5 15
2001-06-05 11:12:18 51°9.384 2°36.752 261 1.8 71.5 15.1
2001-06-05 11:12:23 51°9.385 2°36.756 261 1.8 72.7 15.1
2001-06-05 11:12:27 51°9.386 2°36.759 261 1.8 72.7 15.1
2001-06-05 11:12:33 51°9.386 2°36.763 260.8 1.8 71.4 15.1
2001-06-05 11:12:39 51°9.387 2°36.768 260.7 1.8 72.7 15.1
2001-06-05 11:12:43 51°9.388 2°36.771 260.5 1.8 73.8 15
2001-06-05 11:12:48 51°9.389 2°36.774 260.3 1.8 72.5 15
2001-06-05 11:12:53 51°9.389 2°36.778 260.2 1.8 73.1 15
2001-06-05 11:12:58 51°9.39 2°36.782 260 1.8 72.8 15
2001-06-05 11:13:03 51°9.391 2°36.786 259.8 1.8 71.6 15
2001-06-05 11:13:09 51°9.392 2°36.79 259.8 1.8 73 15
2001-06-05 11:13:14 51°9.392 2°36.794 259.7 1.8 73.9 14.9
2001-06-05 11:13:18 51°9.393 2°36.797 259.5 1.8 72.7 14.9
2001-06-05 11:13:23 51°9.394 2°36.801 259.3 1.8 71.7 14.9
2001-06-05 11:13:28 51°9.394 2°36.804 259.2 1.8 71.9 14.8
2001-06-05 11:13:33 51°9.395 2°36.808 259 1.8 73.3 14.8
2001-06-05 11:13:38 51°9.396 2°36.812 259 1.8 73.3 14.8
2001-06-05 11:13:44 51°9.397 2°36.817 259 1.8 72 14.8
2001-06-05 11:13:49 51°9.398 2°36.82 258.7 1.8 72 14.9
2001-06-05 11:13:53 51°9.399 2°36.823 258.7 1.8 70.7 14.9
2001-06-05 11:13:58 51°9.399 2°36.827 258.5 1.8 71 14.9
2001-06-05 11:14:03 51°9.4 2°36.831 258.5 1.8 71 14.8
2001-06-05 11:14:08 51°9.401 2°36.834 258.2 1.8 71.4 14.8
2001-06-05 11:14:14 51°9.402 2°36.839 258 1.8 72.2 14.8
2001-06-05 11:14:18 51°9.402 2°36.842 257.8 1.8 71.2 14.8
2001-06-05 11:14:24 51°9.403 2°36.847 257.7 1.8 73.1 14.7
2001-06-05 11:14:28 51°9.404 2°36.85 257.7 1.8 71.4 14.7
2001-06-05 11:14:33 51°9.405 2°36.854 257.5 1.8 73 14.6
2001-06-05 11:14:38 51°9.405 2°36.857 257.5 1.8 72.5 14.7
2001-06-05 11:14:43 51°9.406 2°36.861 257.2 1.8 71.5 14.6
2001-06-05 11:14:48 51°9.407 2°36.865 257.3 1.8 72.4 14.6
2001-06-05 11:14:53 51°9.408 2°36.868 257.2 1.8 71.4 14.7
2001-06-05 11:14:58 51°9.408 2°36.872 257.2 1.8 71.6 14.7
2001-06-05 11:15:03 51°9.409 2°36.876 257 1.8 72.3 14.7
2001-06-05 11:15:07 51°9.41 2°36.879 256.8 1.8 73.5 14.7
2001-06-05 11:15:13 51°9.411 2°36.883 256.7 1.8 73.3 14.7
2001-06-05 11:15:18 51°9.412 2°36.887 256.7 1.8 73.1 14.7
2001-06-05 11:15:23 51°9.412 2°36.891 256.7 1.8 72.8 14.7
2001-06-05 11:15:29 51°9.413 2°36.895 256.7 1.8 71.6 14.6
2001-06-05 11:15:33 51°9.414 2°36.897 256.3 1.6 70.9 14.6
2001-06-05 11:15:37 51°9.414 2°36.898 256.7 1 66.9 14.6
2001-06-05 11:15:43 51°9.415 2°36.898 259.2 0.5 36.5 14.6
2001-06-05 11:15:48 51°9.415 2°36.896 262.3 0.8 299.8 14.6
2001-06-05 11:15:53 51°9.416 2°36.892 267.2 1.3 292.1 14.7
2001-06-05 11:15:59 51°9.418 2°36.887 272.2 2.1 293.5 14.8
2001-06-05 11:16:03 51°9.419 2°36.882 278 2.6 297.6 14.8
2001-06-05 11:16:08 51°9.423 2°36.875 285.7 3.5 305.2 14.7
2001-06-05 11:16:13 51°9.428 2°36.868 293.8 4.3 310.7 14.8
2001-06-05 11:16:18 51°9.434 2°36.86 303.7 5.5 319.5 15
2001-06-05 11:16:23 51°9.443 2°36.852 313 6.4 325.7 15
2001-06-05 11:16:28 51°9.453 2°36.845 321.5 7.6 333.9 15
2001-06-05 11:16:34 51°9.467 2°36.838 329.8 8.4 339.5 15.1
2001-06-05 11:16:38 51°9.477 2°36.836 338.8 9.3 348.1 15.2
2001-06-05 11:16:44 51°9.495 2°36.835 347 9.9 353.9 15.1
2001-06-05 11:16:48 51°9.507 2°36.837 355.3 10.8 2.6 15.1
2001-06-05 11:16:53 51°9.523 2°36.843 3.7 11.2 8.6 15.1
2001-06-05 11:16:58 51°9.538 2°36.852 12.5 11.8 17.4 15
2001-06-05 11:17:03 51°9.553 2°36.864 21.2 12.1 23.7 14.9
2001-06-05 11:17:08 51°9.568 2°36.88 30.3 12.6 32.2 15
2001-06-05 11:17:13 51°9.582 2°36.899 37.2 12.9 37.5 14.9
2001-06-05 11:17:19 51°9.597 2°36.925 42.8 13.3 43.8 15.2
2001-06-05 11:17:23 51°9.607 2°36.943 48.3 13.5 47.5 15.2
2001-06-05 11:17:28 51°9.618 2°36.968 53 13.9 52.2 15.3
2001-06-05 11:17:33 51°9.63 2°36.994 55.7 14.1 54.3 15.3
2001-06-05 11:17:38 51°9.641 2°37.02 57 14.4 56.3 15.3
2001-06-05 11:17:43 51°9.652 2°37.047 57.8 14.5 57.1 15.3
2001-06-05 11:17:49 51°9.665 2°37.08 57.7 14.7 57.2 15.4
2001-06-05 11:17:53 51°9.674 2°37.102 56.3 14.8 56.6 15.4
2001-06-05 11:17:58 51°9.686 2°37.128 55.2 14.8 55.4 15.4
2001-06-05 11:18:03 51°9.698 2°37.155 54.7 14.9 54.8 15.5
2001-06-05 11:18:07 51°9.707 2°37.177 55.8 14.8 55.4 15.6
2001-06-05 11:18:13 51°9.721 2°37.209 57 14.8 56.3 15.6
2001-06-05 11:18:19 51°9.734 2°37.243 58 14.8 57.3 15.6
2001-06-05 11:18:23 51°9.743 2°37.265 59 14.8 58.1 15.6
2001-06-05 11:18:28 51°9.753 2°37.293 61.3 14.8 60 15.5
2001-06-05 11:18:33 51°9.762 2°37.322 63.2 14.8 61.4 15.6
2001-06-05 11:18:38 51°9.772 2°37.352 63.8 14.9 62.7 15.6
2001-06-05 11:18:43 51°9.781 2°37.381 64.2 14.9 63 15.6
2001-06-05 11:18:48 51°9.79 2°37.41 64.3 14.9 63.5 15.7
2001-06-05 11:18:54 51°9.801 2°37.446 64.8 14.9 63.6 15.7
2001-06-05 11:18:59 51°9.81 2°37.476 65.7 14.9 64.4 15.7
2001-06-05 11:19:03 51°9.817 2°37.499 66 14.9 64.6 15.7
2001-06-05 11:19:08 51°9.826 2°37.529 65.8 14.9 64.7 15.7
2001-06-05 11:19:13 51°9.835 2°37.559 65.5 14.9 64.6 15.7
2001-06-05 11:19:18 51°9.844 2°37.588 65.2 14.9 64.2 15.7
2001-06-05 11:19:24 51°9.855 2°37.624 64.8 14.9 63.9 15.7
2001-06-05 11:19:27 51°9.861 2°37.641 64 14.9 63.2 15.7
2001-06-05 11:19:34 51°9.874 2°37.682 63.2 14.9 62.7 15.8
2001-06-05 11:19:38 51°9.881 2°37.705 62.8 14.9 62.2 15.7
2001-06-05 11:19:43 51°9.891 2°37.734 62.5 14.9 61.9 15.7
2001-06-05 11:19:48 51°9.901 2°37.763 62.3 14.9 61.9 15.6
2001-06-05 11:19:53 51°9.91 2°37.792 62.2 14.9 61.8 15.7
2001-06-05 11:19:58 51°9.92 2°37.821 62.5 14.9 61.9 15.7
2001-06-05 11:20:03 51°9.93 2°37.851 62.7 14.9 62.2 15.8
2001-06-05 11:20:09 51°9.941 2°37.886 63.8 14.8 63 15.8
2001-06-05 11:20:13 51°9.947 2°37.909 65.5 14.8 64.2 15.7
2001-06-05 11:20:18 51°9.955 2°37.94 68 14.8 67 15.7
2001-06-05 11:20:23 51°9.962 2°37.97 70.2 14.8 68.7 15.7
2001-06-05 11:20:28 51°9.969 2°38.001 71.8 14.9 70.1 15.6
2001-06-05 11:20:33 51°9.977 2°38.032 72.2 14.9 70.5 15.2
2001-06-05 11:20:38 51°9.984 2°38.063 72.2 15 70.5 15.4
2001-06-05 11:20:44 51°9.992 2°38.101 71.3 15 70 15.7
2001-06-05 11:20:47 51°9.997 2°38.119 70.3 15 69.3 15.7
2001-06-05 11:20:53 51°10.006 2°38.156 69 15 68.2 15.6
2001-06-05 11:20:58 51°10.014 2°38.187 67.7 15 67.1 15.6
2001-06-05 11:21:03 51°10.022 2°38.217 67.3 15 66.5 15.5
2001-06-05 11:21:09 51°10.033 2°38.253 66.8 15 65.9 15.5
2001-06-05 11:21:14 51°10.041 2°38.283 66.8 15 65.9 15.4
2001-06-05 11:21:19 51°10.05 2°38.314 67 15 66.1 15.4
2001-06-05 11:21:23 51°10.056 2°38.338 67.7 15 66.4 15.4
2001-06-05 11:21:28 51°10.064 2°38.369 68 15 66.9 15.3
2001-06-05 11:21:33 51°10.072 2°38.399 68.2 15 66.9 15.2
2001-06-05 11:21:38 51°10.08 2°38.43 68.8 15 67.3 14.8
2001-06-05 11:21:43 51°10.088 2°38.46 69.2 15 67.7 14.6
2001-06-05 11:21:48 51°10.096 2°38.491 69.5 15 68 14.6
2001-06-05 11:21:54 51°10.105 2°38.528 69.8 15 68.5 14.5
2001-06-05 11:21:58 51°10.111 2°38.553 70 15.1 68.8 14.6
2001-06-05 11:22:03 51°10.118 2°38.584 71 15.1 69.4 14.6
2001-06-05 11:22:08 51°10.125 2°38.616 73.5 15 71.3 14.5
2001-06-05 11:22:13 51°10.13 2°38.647 75 15 72.7 14.5
2001-06-05 11:22:18 51°10.136 2°38.679 76.3 15 74 14.5
2001-06-05 11:22:24 51°10.143 2°38.718 76.7 15.1 74.6 14.5
2001-06-05 11:22:28 51°10.147 2°38.744 76.7 15.1 74.7 14.6
2001-06-05 11:22:34 51°10.154 2°38.782 76.2 15.1 74.6 14.4
2001-06-05 11:22:38 51°10.158 2°38.808 76 15.1 74.4 14.4
2001-06-05 11:22:43 51°10.165 2°38.839 75.2 15.1 73.7 14.3
2001-06-05 11:22:48 51°10.171 2°38.871 74.8 15.1 73.4 14.3
2001-06-05 11:22:53 51°10.177 2°38.903 74.7 15.1 73 14.3
2001-06-05 11:22:59 51°10.185 2°38.941 74.5 15.1 72.8 14.3
2001-06-05 11:23:03 51°10.189 2°38.967 74 15.1 72.7 14.2
2001-06-05 11:23:08 51°10.196 2°38.999 73.7 15.1 72.2 14.3
2001-06-05 11:23:13 51°10.202 2°39.03 73.3 15.1 72 14.2
2001-06-05 11:23:18 51°10.209 2°39.062 72.7 15.1 71.3 14